Flag for Botswana Weather past 2 weeks in Francistown, Botswana

Now
48 °F

Clear.


Feels Like: 46 °F
Forecast: 44 / 73 °F
Wind: 5 mph from Southeast

Location: Francistown Airport

Current Time: Sep 3, 2014 at 3:35:59 AM

Latest Report: Sep 3, 2014 at 3:00 AM


Visibility: 10 mi

Pressure: 30.27 "Hg

Humidity: 62%

Dew point: 36 °F

Location of FrancistownLocation

Historic Weather in Francistown — Graph

°F

Francistown temperature yesterday

Maximum temperature yesterday: 72 °F (at 2:00 PM)
Minimum temperature yesterday: 41 °F (at 7:00 AM)
Average temperature yesterday: 62 °F

Past Weeks' High & Low Weather Summary

 TemperatureHumidityPressure
High91 °F (Aug 28, 2:00 PM)76% (Aug 19, 6:00 AM)30.39 "Hg (Aug 19, 6:00 AM)
Low28 °F (Aug 23, 7:00 AM)5% (Aug 24, 1:00 PM)29.89 "Hg (Aug 28, 3:00 PM)
Average63 °F27%30.14 "Hg
* Reported Aug 19 2:00 AM — Sep 3 2:00 AM, Francistown, Weather by CustomWeather, © 2014

Note: Actual official high and low records may vary slightly from our data, if they occured in-between our weather recording intervals... More about our weather records

Advertising

Francistown weather history for previous 24 hours

 ConditionsComfort  
Time TempWeatherWind HumidityBarometerVisibility
2:00 AM
Sep 3
46 °FPassing clouds.3 mph66%30.27 "HgN/A
1:00 AM48 °FClear.6 mph62%30.30 "Hg10 mi
12:00 AM52 °FClear.5 mph54%30.30 "Hg10 mi
11:00 PM
Sep 2
55 °FClear.8 mph51%30.30 "Hg10 mi
10:00 PM57 °FClear.10 mph44%30.33 "Hg10 mi
9:00 PM55 °FClear.8 mph41%30.30 "Hg10 mi
8:00 PM59 °FClear.9 mph36%30.30 "Hg10 mi
7:00 PM63 °FClear.8 mph32%30.27 "Hg10 mi
6:00 PM66 °FClear.13 mph30%30.24 "Hg10 mi
5:00 PM70 °FClear.18 mph29%30.21 "Hg10 mi
4:00 PM70 °FSunny.14 mph31%30.21 "Hg10 mi
3:00 PM72 °FSunny.16 mph29%30.24 "Hg10 mi
2:00 PM72 °FSunny.20 mph29%30.24 "Hg10 mi
12:00 PM68 °FSunny.14 mph38%30.30 "Hg10 mi
11:00 AM66 °FSunny.12 mph43%30.33 "Hg10 mi
10:00 AM61 °FSunny.17 mph52%30.33 "Hg10 mi
9:00 AM57 °FSunny.16 mph59%30.33 "Hg10 mi
8:00 AM54 °FSunny.9 mph54%30.33 "Hg10 mi
7:00 AM41 °FSunny.6 mph70%30.30 "Hg10 mi
Weather by CustomWeather, © 2014

See weather overviewHow to use our weather pages